Location: Cogollal
(10.0582°N, 67.8466°W)
Time: 03:00:53
(UTC+00:00)

ARGOS - Pass Details

Date: 14 April 2024
Orbit: 818 x 835 km, 98.4° (Epoch: 19 May)

Event Time Altitude Azimuth Distance (km) Brightness Sun altitude
Rises 09:09:44 0° 16° (NNE) 3,340 6.7 -18.1°
Reaches altitude 10° 09:12:06 10° 18° (NNE) 2,407 6.0 -17.5°
Maximum altitude 09:17:24 71° 102° (ESE) 862 3.4 -16.2°
Drops below altitude 10° 09:22:42 10° 186° (S) 2,405 5.4 -15.0°
Sets 09:25:03 0° 188° (S) 3,338 6.1 -14.4°
